Location: Malvern Link
(52.1333°N, 2.3000°W)
Time: 21:50:11
(UTC+00:00)

KKS-1 - Visible Passes

Search period start: 28 June 2022 00:00
Search period end: 08 July 2022 00:00
Orbit: 636 x 647 km, 98.2° (Epoch: 28 June)

Date Brightness Start Highest point End Pass type
(mag) Time Alt. Az. Time Alt. Az. Time Alt. Az.
28 Jun ? 22:09:37 10° NNE 22:14:06 62° ESE 22:18:25 11° S visible
28 Jun ? 23:46:52 10° N 23:50:14 21° WNW 23:53:34 10° WSW visible
29 Jun ? 22:33:36 10° NNE 22:38:06 81° WNW 22:42:34 10° SSW visible
30 Jun ? 00:11:33 10° NNW 00:13:56 14° NW 00:16:19 10° W visible
30 Jun ? 21:21:39 10° NE 21:25:16 23° E 21:28:51 10° SE visible
30 Jun ? 22:57:42 10° N 23:02:03 50° WNW 23:06:22 10° SW visible
01 Jul ? 21:45:16 10° NNE 21:49:27 37° E 21:53:32 10° SSE visible
01 Jul ? 23:21:55 10° N 23:25:54 32° WNW 23:29:52 10° SW visible
02 Jul ? 22:09:05 10° NNE 22:13:33 61° ESE 22:17:47 11° S visible
02 Jul ? 23:46:18 10° N 23:49:41 21° WNW 23:53:04 10° WSW visible
03 Jul ? 22:33:03 10° NNE 22:37:33 83° WNW 22:42:01 10° SSW visible
04 Jul ? 00:10:57 10° NNW 00:13:24 15° NW 00:15:50 10° W visible
04 Jul ? 21:21:07 10° NE 21:24:42 23° E 21:28:14 10° SE visible
04 Jul ? 22:57:08 10° N 23:01:30 51° WNW 23:05:48 10° SW visible
05 Jul ? 21:44:43 10° NNE 21:48:52 36° E 21:52:51 11° SSE visible
05 Jul ? 23:21:21 10° N 23:25:21 33° WNW 23:29:20 10° SW visible
06 Jul ? 22:08:31 10° NNE 22:12:58 60° ESE 22:17:05 12° S visible
06 Jul ? 23:45:43 10° N 23:49:08 22° WNW 23:52:32 10° WSW visible
07 Jul ? 22:32:28 10° NNE 22:36:59 85° WNW 22:41:18 11° SSW visible
